• In India
  • List of Countries
  • For 7 days
  • Water Temperature
  • Satellite Maps
  • Weather Map
  • Weather Widgets
  • user-avatar
    Login

    Hourly Weather Zaliznyi Port

    Today, 19 January, Saturday

    Time Temperature Precipitation Wind Pressure Humidity
    00:00 +3°C° 0 mm 5 mps 760 mmHg 91%
    01:00 +3°C° 0 mm 5 mps 760 mmHg 91%
    02:00 +3°C° 0 mm 5 mps 760 mmHg 92%
    03:00 +2°C° 0 mm 5 mps 760 mmHg 91%
    04:00 +1°C° 0 mm 5 mps 761 mmHg 90%
    05:00 0°C° 0 mm 5 mps 761 mmHg 88%
    06:00 0°C° 0 mm 5 mps 761 mmHg 88%
    07:00 -2°C° 0 mm 6 mps 762 mmHg 88%
    08:00 -3°C° 0 mm 7 mps 762 mmHg 88%
    09:00 -2°C° 0 mm 7 mps 763 mmHg 85%
    10:00 -1°C° 0 mm 7 mps 763 mmHg 82%
    11:00 0°C° 0 mm 7 mps 764 mmHg 79%
    12:00 0°C° 0 mm 7 mps 764 mmHg 76%
    13:00 +1°C° 0 mm 6 mps 765 mmHg 74%
    14:00 +1°C° 0 mm 6 mps 765 mmHg 71%
    15:00 -1°C° 0 mm 6 mps 766 mmHg 72%
    16:00 -2°C° 0 mm 6 mps 766 mmHg 73%
    17:00 -2°C° 0 mm 5 mps 767 mmHg 74%
    18:00 -4°C° 0 mm 5 mps 767 mmHg 74%
    19:00 -4°C° 0 mm 5 mps 767 mmHg 74%
    20:00 -5°C° 0 mm 5 mps 768 mmHg 74%
    21:00 -5°C° 0 mm 5 mps 768 mmHg 74%
    22:00 -5°C° 0 mm 5 mps 768 mmHg 73%
    23:00 -5°C° 0 mm 5 mps 768 mmHg 72%

    Tomorrow, 20 January, Sunday

    Time Temperature Precipitation Wind Pressure Humidity
    00:00 -5°C° 0 mm 5 mps 768 mmHg 72%
    01:00 -5°C° 0 mm 5 mps 768 mmHg 72%
    02:00 -5°C° 0 mm 5 mps 768 mmHg 71%
    03:00 -5°C° 0 mm 5 mps 768 mmHg 70%
    04:00 -5°C° 0 mm 5 mps 768 mmHg 69%
    05:00 -5°C° 0 mm 5 mps 767 mmHg 68%
    06:00 -5°C° 0 mm 5 mps 767 mmHg 67%
    07:00 -5°C° 0 mm 6 mps 767 mmHg 67%
    08:00 -5°C° 0 mm 6 mps 767 mmHg 66%
    09:00 -4°C° 0 mm 6 mps 767 mmHg 64%
    10:00 -3°C° 0 mm 6 mps 767 mmHg 62%
    11:00 -2°C° 0 mm 6 mps 767 mmHg 60%
    12:00 -1°C° 0 mm 5 mps 767 mmHg 62%
    13:00 -1°C° 0 mm 5 mps 766 mmHg 65%
    14:00 0°C° 0 mm 5 mps 765 mmHg 67%
    15:00 -1°C° 0 mm 5 mps 765 mmHg 71%
    16:00 -1°C° 0 mm 5 mps 765 mmHg 76%
    17:00 -1°C° 0 mm 5 mps 765 mmHg 80%
    18:00 -1°C° 0 mm 5 mps 764 mmHg 82%
    19:00 -1°C° 0 mm 5 mps 764 mmHg 84%
    20:00 -1°C° 0 mm 5 mps 764 mmHg 85%
    21:00 -1°C° 0.4 mm 5 mps 764 mmHg 86%
    22:00 0°C° 0.4 mm 5 mps 763 mmHg 88%
    23:00 0°C° 0.4 mm 5 mps 763 mmHg 89%

    Day after tomorrow, 21 January, Monday

    Time Temperature Precipitation Wind Pressure Humidity
    00:00 0°C° 0.2 mm 5 mps 763 mmHg 90%
    01:00 0°C° 0.2 mm 5 mps 762 mmHg 90%
    02:00 0°C° 0.2 mm 5 mps 762 mmHg 91%
    03:00 +1°C° 0.9 mm 5 mps 761 mmHg 93%
    04:00 +1°C° 0.9 mm 4 mps 761 mmHg 94%
    05:00 +1°C° 0.9 mm 4 mps 760 mmHg 95%
    06:00 +3°C° 0.8 mm 4 mps 760 mmHg 96%
    07:00 +2°C° 0.8 mm 5 mps 760 mmHg 96%
    08:00 +2°C° 0.8 mm 5 mps 760 mmHg 97%
    09:00 +3°C° 1.4 mm 4 mps 760 mmHg 97%
    10:00 +3°C° 1.4 mm 4 mps 760 mmHg 98%
    11:00 +3°C° 1.4 mm 3 mps 760 mmHg 98%
    12:00 +1°C° 0 mm 4 mps 760 mmHg 95%
    13:00 +1°C° 0 mm 5 mps 760 mmHg 91%
    14:00 +1°C° 0 mm 6 mps 760 mmHg 88%
    15:00 -1°C° 0 mm 7 mps 761 mmHg 88%
    16:00 -1°C° 0 mm 7 mps 761 mmHg 88%
    17:00 -2°C° 0 mm 7 mps 761 mmHg 88%
    18:00 -2°C° 0 mm 7 mps 762 mmHg 87%
    19:00 -3°C° 0 mm 7 mps 763 mmHg 86%
    20:00 -3°C° 0 mm 7 mps 763 mmHg 86%
    21:00 -3°C° 0 mm 7 mps 763 mmHg 86%
    22:00 -3°C° 0 mm 6 mps 764 mmHg 85%
    23:00 -4°C° 0 mm 6 mps 764 mmHg 85%

    22 January, Tuesday

    Time Temperature Precipitation Wind Pressure Humidity
    00:00 -4°C° 0 mm 6 mps 764 mmHg 85%
    01:00 -4°C° 0 mm 5 mps 765 mmHg 85%
    02:00 -4°C° 0 mm 5 mps 765 mmHg 85%
    03:00 -5°C° 0 mm 5 mps 765 mmHg 85%
    04:00 -5°C° 0 mm 5 mps 765 mmHg 86%
    05:00 -4°C° 0 mm 4 mps 765 mmHg 86%
    06:00 -4°C° 0 mm 4 mps 765 mmHg 86%
    07:00 -4°C° 0 mm 4 mps 765 mmHg 85%
    08:00 -4°C° 0 mm 3 mps 765 mmHg 85%
    09:00 -4°C° 0 mm 3 mps 765 mmHg 82%
    10:00 -2°C° 0 mm 3 mps 765 mmHg 80%
    11:00 -2°C° 0 mm 2 mps 765 mmHg 78%
    12:00 -1°C° 0 mm 2 mps 764 mmHg 77%
    13:00 -1°C° 0 mm 2 mps 764 mmHg 76%
    14:00 -1°C° 0 mm 2 mps 764 mmHg 75%
    15:00 -1°C° 0 mm 2 mps 763 mmHg 78%
    16:00 -1°C° 0 mm 3 mps 763 mmHg 81%
    17:00 -1°C° 0 mm 3 mps 763 mmHg 84%
    18:00 -1°C° 0 mm 3 mps 762 mmHg 84%
    19:00 -2°C° 0 mm 4 mps 762 mmHg 85%
    20:00 -2°C° 0 mm 4 mps 762 mmHg 86%
    21:00 -2°C° 0.1 mm 4 mps 762 mmHg 87%
    22:00 -2°C° 0.1 mm 4 mps 761 mmHg 88%
    23:00 -1°C° 0.1 mm 4 mps 761 mmHg 90%

    23 January, Wednesday

    Time Temperature Precipitation Wind Pressure Humidity
    00:00 -1°C° 0.1 mm 4 mps 760 mmHg 90%
    01:00 -1°C° 0.1 mm 4 mps 760 mmHg 91%
    02:00 0°C° 0.1 mm 3 mps 759 mmHg 92%
    03:00 -1°C° 0.2 mm 4 mps 759 mmHg 93%
    04:00 -1°C° 0.2 mm 4 mps 758 mmHg 93%
    05:00 -1°C° 0.2 mm 5 mps 758 mmHg 94%
    06:00 -1°C° 0.3 mm 5 mps 758 mmHg 94%
    07:00 -2°C° 0.3 mm 6 mps 758 mmHg 94%
    08:00 -1°C° 0.3 mm 6 mps 757 mmHg 93%
    09:00 -1°C° 0.1 mm 6 mps 757 mmHg 92%
    10:00 +1°C° 0.1 mm 6 mps 757 mmHg 90%
    11:00 +1°C° 0.1 mm 6 mps 757 mmHg 88%
    12:00 +1°C° 0.1 mm 6 mps 757 mmHg 88%
    13:00 +1°C° 0.1 mm 6 mps 756 mmHg 88%
    14:00 +1°C° 0.1 mm 6 mps 756 mmHg 88%
    15:00 0°C° 0.2 mm 7 mps 756 mmHg 90%
    16:00 0°C° 0.2 mm 8 mps 756 mmHg 91%
    17:00 0°C° 0.2 mm 8 mps 755 mmHg 93%
    18:00 0°C° 0.5 mm 9 mps 755 mmHg 93%
    19:00 0°C° 0.5 mm 9 mps 755 mmHg 93%
    20:00 0°C° 0.5 mm 10 mps 755 mmHg 94%
    21:00 0°C° 0.6 mm 10 mps 755 mmHg 94%
    22:00 +1°C° 0.6 mm 10 mps 755 mmHg 93%
    23:00 +1°C° 0.6 mm 10 mps 754 mmHg 93%

    24 January, Thursday

    Time Temperature Precipitation Wind Pressure Humidity
    00:00 +1°C° 1.2 mm 10 mps 754 mmHg 93%
    01:00 +1°C° 1.2 mm 9 mps 754 mmHg 93%
    02:00 +1°C° 1.2 mm 9 mps 754 mmHg 93%
    03:00 +1°C° 0.1 mm 8 mps 753 mmHg 92%
    04:00 +2°C° 0.1 mm 8 mps 753 mmHg 92%
    05:00 +2°C° 0.1 mm 8 mps 753 mmHg 91%
    06:00 +3°C° 0 mm 7 mps 753 mmHg 92%
    07:00 +3°C° 0 mm 6 mps 754 mmHg 92%
    08:00 +3°C° 0 mm 5 mps 754 mmHg 93%
    09:00 +6°C° 0 mm 5 mps 754 mmHg 90%
    10:00 +7°C° 0 mm 5 mps 754 mmHg 88%
    11:00 +8°C° 0 mm 5 mps 754 mmHg 85%
    12:00 +8°C° 0 mm 5 mps 754 mmHg 83%
    13:00 +9°C° 0 mm 5 mps 754 mmHg 80%
    14:00 +9°C° 0 mm 5 mps 754 mmHg 78%
    15:00 +9°C° 0.1 mm 5 mps 754 mmHg 80%
    16:00 +8°C° 0.1 mm 4 mps 754 mmHg 83%
    17:00 +7°C° 0.1 mm 4 mps 754 mmHg 86%
    18:00 +7°C° 0.2 mm 4 mps 754 mmHg 86%
    19:00 +6°C° 0.2 mm 5 mps 754 mmHg 86%
    20:00 +5°C° 0.2 mm 6 mps 754 mmHg 86%
    21:00 +5°C° 0 mm 6 mps 754 mmHg 86%
    22:00 +4°C° 0 mm 6 mps 754 mmHg 86%
    23:00 +4°C° 0 mm 6 mps 754 mmHg 86%
    Show more